Stations météo

réclame
Mon MeteoGroup
J6-A, Pays-Bas (6211): Température de l'air & dewpoint: 19.06.2018 21:00:00 - 25.06.2018 21:00:00 (CEST)J6-A, Pays-Bas (6211): Vitesse du vent & gusts: 19.06.2018 21:00:00 - 25.06.2018 21:00:00 (CEST)J6-A, Pays-Bas (6211): Direction du vent: 19.06.2018 21:00:00 - 25.06.2018 21:00:00 (CEST)J6-A, Pays-Bas (6211): reduced air pressure: 19.06.2018 21:00:00 - 25.06.2018 21:00:00 (CEST)J6-A, Pays-Bas (6211): visibility: 19.06.2018 21:00:00 - 25.06.2018 21:00:00 (CEST)
Date & Time tt [°C] td [°C] ff [km/h] ff [knt] fx [km/h] fx [knt] dd ppp [hPa] vv [km]
25.06.2018 21:00:00 11,9 11,9 4 2 7 4 - 1027,4 0,9
25.06.2018 20:00:00 11,9 11,9 2 1 4 2 NW 1026,9 0,1
25.06.2018 19:00:00 12,1 12,0 4 2 7 4 - 1027,0 1,5
25.06.2018 18:00:00 13,1 12,5 4 2 7 4 - 1027,3 10
25.06.2018 17:00:00 12,7 12,4 2 1 7 4 - 1027,3 0,5
25.06.2018 16:00:00 12,2 11,9 9 5 11 6 W 1027,2 0,2
25.06.2018 15:00:00 12,1 11,7 9 5 11 6 SW 1027,1 0,5
25.06.2018 14:00:00 12,1 11,5 5 3 7 4 SSW 1026,9 1,4
25.06.2018 13:00:00 12,6 11,8 5 3 7 4 SSE 1026,6 10
25.06.2018 12:00:00 12,5 11,7 4 2 7 4 - 1026,3 10
25.06.2018 11:00:00 11,8 11,6 4 2 7 4 - 1026,1 1,3
25.06.2018 10:00:00 12,0 11,6 4 2 7 4 - 1025,8 10
25.06.2018 09:00:00 12,1 11,9 2 1 11 6 - 1025,9 10
25.06.2018 08:00:00 12,0 11,5 5 3 11 6 NNW 1025,8 10
25.06.2018 07:00:00 12,0 11,4 11 6 14 8 - 1025,5 10
25.06.2018 06:00:00 12,4 11,4 11 6 14 8 NW 1025,5 10
25.06.2018 05:00:00 12,5 11,3 5 3 11 6 - 1025,3 10
25.06.2018 04:00:00 12,7 11,9 9 5 11 6 NNW 1025,4 10
25.06.2018 03:00:00 12,9 12,1 8 4 7 4 N 1025,3 10
25.06.2018 02:00:00 12,9 12,0 9 5 7 4 N 1025,3 10
25.06.2018 01:00:00 12,9 11,9 8 4 7 4 N 1025,2 10
25.06.2018 00:00:00 13,1 11,8 9 5 11 6 N 1025,4 10
24.06.2018 23:00:00 13,1 11,6 11 6 14 8 N 1025,4 10
24.06.2018 22:00:00 13,4 11,5 13 7 14 8 N 1025,2 10
24.06.2018 21:00:00 13,6 11,5 15 8 18 10 N 1025,1 10
24.06.2018 20:00:00 13,4 11,8 24 13 25 14 NW 1025,1 10
24.06.2018 19:00:00 13,8 12,0 26 14 25 14 NW 1025,3 10
24.06.2018 18:00:00 13,7 12,0 26 14 25 14 NW 1025,5 10
24.06.2018 17:00:00 13,5 11,9 26 14 25 14 NW 1025,6 10
24.06.2018 16:00:00 13,3 11,7 28 15 25 14 NW 1025,3 10
24.06.2018 15:00:00 13,2 11,6 24 13 25 14 WNW 1025,6 10
24.06.2018 14:00:00 13,1 11,3 24 13 22 12 NW 1025,6 10
24.06.2018 13:00:00 12,9 11,0 26 14 25 14 NW 1025,6 10
24.06.2018 12:00:00 12,6 10,4 24 13 25 14 WNW 1025,4 10
24.06.2018 11:00:00 12,5 10,3 26 14 25 14 WNW 1025,3 10
24.06.2018 10:00:00 12,4 10,2 24 13 25 14 WNW 1025,0 10
24.06.2018 09:00:00 12,4 9,9 28 15 25 14 WNW 1025,0 10
24.06.2018 08:00:00 12,2 10,3 26 14 25 14 WNW 1024,8 10
24.06.2018 07:00:00 12,1 10,4 24 13 25 14 WNW 1024,6 10
24.06.2018 06:00:00 12,0 10,3 24 13 25 14 WNW 1024,7 10
24.06.2018 05:00:00 12,3 10,2 18 10 18 10 WNW 1024,6 10
24.06.2018 04:00:00 12,1 9,8 13 7 14 8 WNW 1024,9 10
24.06.2018 03:00:00 12,1 9,4 11 6 11 6 NW 1025,3 10
24.06.2018 02:00:00 12,2 9,2 11 6 14 8 NW 1025,5 10
24.06.2018 01:00:00 12,2 9,4 11 6 14 8 NW 1025,7 10
24.06.2018 00:00:00 12,4 9,4 9 5 11 6 N 1025,9 10
23.06.2018 23:00:00 12,6 9,3 13 7 18 10 N 1025,7 10
23.06.2018 22:00:00 12,8 9,5 18 10 18 10 N 1025,7 10
23.06.2018 21:00:00 12,9 10,0 18 10 18 10 NNW 1025,6 10
23.06.2018 20:00:00 12,9 10,7 18 10 18 10 NW 1025,5 10
23.06.2018 19:00:00 12,7 11,4 15 8 18 10 NW 1025,4 10
23.06.2018 18:00:00 12,4 10,9 18 10 22 12 NW 1025,7 10
23.06.2018 17:00:00 12,3 10,9 18 10 22 12 WNW 1026,1 10
23.06.2018 16:00:00 12,3 10,2 16 9 18 10 W 1026,3 10
23.06.2018 15:00:00 12,6 10,2 16 9 18 10 W 1026,5 10
23.06.2018 14:00:00 13,0 10,4 18 10 18 10 WSW 1026,8 10
23.06.2018 13:00:00 12,8 10,7 16 9 18 10 SW 1027,1 10
23.06.2018 12:00:00 12,5 10,7 13 7 14 8 SW 1027,0 10
23.06.2018 11:00:00 12,3 10,6 15 8 14 8 WSW 1027,4 10
23.06.2018 10:00:00 12,1 10,6 21 11 22 12 WSW 1027,5 10
23.06.2018 09:00:00 11,9 10,3 16 9 18 10 WSW 1027,7 10
23.06.2018 08:00:00 11,8 9,9 13 7 18 10 W 1027,6 10
23.06.2018 07:00:00 11,9 9,5 21 11 25 14 W 1027,7 10
23.06.2018 06:00:00 11,9 9,2 24 13 29 16 W 1027,7 10
23.06.2018 05:00:00 11,8 8,6 29 16 32 18 W 1027,8 10
23.06.2018 04:00:00 11,6 8,9 34 18 32 18 W 1028,0 10
23.06.2018 03:00:00 11,7 9,4 34 18 32 18 W 1028,2 31
23.06.2018 02:00:00 12,1 9,4 26 14 25 14 W 1028,5 -
23.06.2018 01:00:00 12,1 9,5 24 13 25 14 WNW 1028,6 -
23.06.2018 00:00:00 12,2 9,1 26 14 29 16 NW 1028,7 -
22.06.2018 23:00:00 12,1 8,9 29 16 29 16 NW 1028,8 -
22.06.2018 22:00:00 12,1 8,3 29 16 36 19 NW 1028,5 -
22.06.2018 21:00:00 12,2 8,2 34 18 40 21 NW 1028,7 10
22.06.2018 20:00:00 12,2 7,8 39 21 43 23 NW 1028,5 10
22.06.2018 19:00:00 12,2 7,8 44 24 50 27 NW 1028,6 10
22.06.2018 18:00:00 12,1 7,5 52 28 50 27 NW 1028,7 18
22.06.2018 17:00:00 12,1 7,2 54 29 50 27 NW 1028,6 10
22.06.2018 16:00:00 12,0 7,0 52 28 50 27 NW 1028,4 10
22.06.2018 15:00:00 12,0 7,5 50 27 50 27 NW 1028,2 10
22.06.2018 14:00:00 11,9 7,7 50 27 50 27 NW 1028,0 10
22.06.2018 13:00:00 11,9 6,8 50 27 54 29 NW 1027,8 10
22.06.2018 12:00:00 11,9 6,7 52 28 54 29 NW 1027,4 10
22.06.2018 11:00:00 11,7 7,4 48 26 54 29 NW 1026,8 10
22.06.2018 10:00:00 11,3 7,5 57 31 58 31 NW 1026,4 10
22.06.2018 09:00:00 11,5 7,4 61 33 61 33 NW 1025,8 10
22.06.2018 08:00:00 11,5 7,7 63 34 65 35 NW 1025,3 10
22.06.2018 07:00:00 11,6 7,1 68 37 72 39 NW 1024,8 -
22.06.2018 06:00:00 11,8 6,3 68 37 72 39 NW 1024,3 -
22.06.2018 05:00:00 12,0 5,0 72 39 76 41 NW 1024,2 -
22.06.2018 04:00:00 12,4 5,3 72 39 76 41 NW 1023,5 -
22.06.2018 03:00:00 12,4 7,2 72 39 72 39 NW 1023,7 -
22.06.2018 02:00:00 12,5 7,4 63 34 68 37 WNW 1023,8 -
22.06.2018 01:00:00 12,7 7,4 63 34 65 35 WNW 1024,0 -
22.06.2018 00:00:00 12,9 6,5 65 35 68 37 NW 1024,3 10
21.06.2018 23:00:00 12,5 7,1 67 36 68 37 WNW 1024,3 10
21.06.2018 22:00:00 12,5 6,8 59 32 65 35 WNW 1024,1 10
21.06.2018 21:00:00 12,4 5,2 65 35 72 39 NW 1023,9 10
21.06.2018 20:00:00 12,6 5,2 63 34 72 39 WNW 1023,5 10
21.06.2018 19:00:00 12,1 6,6 61 33 58 31 WNW 1023,7 10
21.06.2018 18:00:00 12,0 6,5 59 32 61 33 WNW 1023,7 10
21.06.2018 17:00:00 11,8 5,7 67 36 65 35 NW 1023,5 10
21.06.2018 16:00:00 11,8 7,3 65 35 68 37 WNW 1022,5 10
21.06.2018 15:00:00 10,8 7,6 59 32 65 35 NW 1022,4 10
21.06.2018 14:00:00 11,0 8,1 63 34 68 37 NW 1021,6 10
21.06.2018 13:00:00 11,8 6,8 67 36 68 37 NW 1020,6 10
21.06.2018 12:00:00 11,6 6,9 65 35 68 37 NW 1019,7 10
21.06.2018 11:00:00 11,0 6,8 67 36 65 35 WNW 1018,3 10
21.06.2018 10:00:00 11,0 6,5 65 35 65 35 WNW 1017,3 10
21.06.2018 09:00:00 10,4 5,4 67 36 68 37 WNW 1016,7 10
21.06.2018 08:00:00 11,4 6,3 67 36 65 35 WNW 1015,9 10
21.06.2018 07:00:00 11,7 6,8 59 32 65 35 W 1015,4 10
21.06.2018 06:00:00 12,1 7,2 61 33 58 31 WNW 1015,5 10
21.06.2018 05:00:00 12,6 8,7 52 28 54 29 WNW 1015,5 10
21.06.2018 04:00:00 12,5 10,3 35 19 32 18 WNW 1016,2 10
21.06.2018 03:00:00 12,4 10,6 28 15 32 18 W 1016,6 10
21.06.2018 02:00:00 12,4 11,2 21 11 25 14 W 1016,7 10
21.06.2018 01:00:00 13,0 10,7 16 9 18 10 WNW 1016,7 10
21.06.2018 00:00:00 13,2 10,7 16 9 25 14 NW 1016,9 10
20.06.2018 23:00:00 13,3 10,5 28 15 29 16 NW 1016,9 10
20.06.2018 22:00:00 13,4 10,9 31 17 36 19 NW 1016,6 10
20.06.2018 21:00:00 13,5 11,9 35 19 36 19 NW 1016,3 10
20.06.2018 20:00:00 14,1 12,9 26 14 36 19 WNW 1016,2 10
20.06.2018 19:00:00 14,4 12,6 31 17 36 19 W 1016,0 10
20.06.2018 18:00:00 15,2 13,7 41 22 47 25 SW 1016,0 10
20.06.2018 17:00:00 14,8 13,6 46 25 50 27 SW 1016,0 10
20.06.2018 16:00:00 14,6 13,6 44 24 47 25 SSW 1016,0 9
20.06.2018 15:00:00 14,5 13,5 46 25 47 25 SSW 1016,1 8
20.06.2018 14:00:00 14,7 13,8 50 27 43 23 SSW 1016,3 9
20.06.2018 13:00:00 14,5 13,6 48 26 47 25 SSW 1016,8 10
20.06.2018 12:00:00 14,5 13,5 41 22 50 27 SSW 1017,0 10
20.06.2018 11:00:00 14,6 13,5 46 25 54 29 SSW 1017,0 10
20.06.2018 10:00:00 14,4 13,3 48 26 54 29 SSW 1016,9 10
20.06.2018 09:00:00 14,7 13,3 47 25 54 29 SW 1017,0 23
20.06.2018 08:00:00 15,1 13,9 50 27 50 27 SW 1017,4 10
20.06.2018 07:00:00 14,6 13,6 55 30 54 29 SSW 1017,7 10
20.06.2018 06:00:00 14,4 13,4 42 23 43 23 SW 1017,6 10
20.06.2018 05:00:00 14,9 14,0 41 22 43 23 SW 1017,8 10
20.06.2018 04:00:00 15,1 13,9 36 19 47 25 SW 1018,1 44
20.06.2018 03:00:00 15,5 14,1 48 26 47 25 SW 1018,3 10
20.06.2018 02:00:00 14,9 13,8 42 23 43 23 SW 1018,8 10
20.06.2018 01:00:00 14,1 13,4 44 24 43 23 SSW 1019,2 10
20.06.2018 00:00:00 14,3 13,4 41 22 43 23 SSW 1019,4 10
19.06.2018 23:00:00 14,7 13,5 42 23 40 21 SSW 1019,8 10
19.06.2018 22:00:00 14,6 13,4 35 19 36 19 S 1020,0 10
19.06.2018 21:00:00 14,3 13,3 18 10 22 12 SSE 1020,6 16

tt = Température de l'air
td = dewpoint
ff = Vitesse du vent
fx = gusts
dd = Direction du vent
ppp = reduced air pressure
vv = visibility

stations d'obs. à proximité